User: anonymous
Location: Unspecified
(0.0000°N, 0.0000°E)
Time: 06:19:24
(UTC+02:00)
Language:

Delta 168 - Orbit

View from above orbital plane
View from above orbital plane
View from above satellite
View from above satellite

Ground track
Ground track

The orbit data is extracted from the following two-line orbital elements,

1 14051U 83041B   14264.55110116  .00006310  00000-0  61508-3 0  6129
2 14051 025.3422 277.3891 1127021 244.3945 277.5970 13.01612518447632
Epoch (UTC): 21 September 2014 13:13:35
Eccentricity: 0.1127021
inclination: 25.3422°
perigee height: 395 km
apogee height: 2116 km
right ascension of ascending node: 277.3891°
argument of perigee: 244.3945°
revolutions per day: 13.01612518
mean anomaly at epoch: 277.5970°
orbit number at epoch: 44763

The dashed part of the orbit path shows where the satellite is in the earth's shadow,  

DLR